KJ7IVE-13 Weather Reports


time (UTC)temp
C
wind
direction
speed
KPH
gust
KPH
rain 1hr
cm
rain 24hr
cm
rain mn
cm
humidity
%
barometer
mb
20260508235814 24 132 6.4 8.0 0.00 0.00 0.00 10 1015.3
20260508235312 24 235 8.0 11.3 0.00 0.00 0.00 10 1015.2
20260508234809 24 253 6.4 8.0 0.00 0.00 0.00 10 1015.5
20260508234305 24 207 4.8 4.8 0.00 0.00 0.00 10 1015.6
20260508233804 24 214 8.0 9.7 0.00 0.00 0.00 10 1015.5
20260508233302 25 282 4.8 8.0 0.00 0.00 0.00 10 1015.6
20260508232759 24 243 6.4 8.0 0.00 0.00 0.00 10 1015.6
20260508232255 23 240 8.0 9.7 0.00 0.00 0.00 10 1015.6
20260508231754 23 202 11.3 14.5 0.00 0.00 0.00 10 1015.6
20260508231250 24 199 3.2 3.2 0.00 0.00 0.00 10 1015.6
20260508230747 23 177 4.8 4.8 0.00 0.00 0.00 10 1015.6
20260508230243 23 205 12.9 16.1 0.00 0.00 0.00 10 1015.6
20260508225741 24 216 8.0 9.7 0.00 0.00 0.00 10 1015.6
20260508225237 25 212 6.4 9.7 0.00 0.00 0.00 10 1015.8
20260508224735 25 144 4.8 8.0 0.00 0.00 0.00 10 1016.0
20260508224232 24 202 3.2 4.8 0.00 0.00 0.00 10 1015.8
20260508223730 23 200 4.8 4.8 0.00 0.00 0.00 10 1016.2
20260508223227 23 203 6.4 8.0 0.00 0.00 0.00 10 1016.0
20260508222724 23 213 11.3 14.5 0.00 0.00 0.00 10 1016.1
20260508222222 24 246 6.4 8.0 0.00 0.00 0.00 10 1016.4
20260508221718 24 238 4.8 4.8 0.00 0.00 0.00 10 1016.4
20260508221214 24 248 4.8 4.8 0.00 0.00 0.00 10 1016.4
20260508220710 24 239 8.0 9.7 0.00 0.00 0.00 10 1016.5
20260508220207 23 218 8.0 9.7 0.00 0.00 0.00 10 1016.7
20260508215703 23 243 14.5 17.7 0.00 0.00 0.00 10 1016.6
20260508215200 24 183 8.0 12.9 0.00 0.00 0.00 10 1016.5
20260508214657 23 297 6.4 8.0 0.00 0.00 0.00 10 1016.6
20260508214154 23 301 6.4 9.7 0.00 0.00 0.00 10 1016.7
20260508213651 23 217 6.4 9.7 0.00 0.00 0.00 10 1017.0
20260508213147 23 267 14.5 17.7 0.00 0.00 0.00 10 1016.9
20260508212643 23 233 4.8 4.8 0.00 0.00 0.00 10 1017.0
20260508212140 22 239 9.7 11.3 0.00 0.00 0.00 10 1017.2
20260508211635 23 228 14.5 16.1 0.00 0.00 0.00 10 1017.0
20260508211132 23 250 8.0 9.7 0.00 0.00 0.00 10 1017.4
20260508210629 22 306 8.0 11.3 0.00 0.00 0.00 10 1017.2
20260508210127 23 250 12.9 16.1 0.00 0.00 0.00 10 1017.4
20260508205623 23 244 4.8 4.8 0.00 0.00 0.00 10 1017.2
20260508205120 22 269 8.0 9.7 0.00 0.00 0.00 10 1017.4
20260508204616 22 243 6.4 9.7 0.00 0.00 0.00 10 1017.5
20260508204112 22 224 8.0 11.3 0.00 0.00 0.00 10 1017.3
20260508203608 22 205 3.2 3.2 0.00 0.00 0.00 10 1017.3
20260508203104 22 217 8.0 11.3 0.00 0.00 0.00 10 1017.4
20260508202601 22 230 16.1 17.7 0.00 0.00 0.00 10 1017.5
20260508202058 22 238 14.5 16.1 0.00 0.00 0.00 10 1017.6
20260508201555 22 207 12.9 14.5 0.00 0.00 0.00 10 1017.5
20260508201051 22 236 12.9 16.1 0.00 0.00 0.00 10 1017.6
20260508200549 22 242 8.0 9.7 0.00 0.00 0.00 10 1018.0
20260508200044 22 209 8.0 11.3 0.00 0.00 0.00 10 1017.6
20260508195541 21 247 8.0 9.7 0.00 0.00 0.00 10 1017.8
20260508195038 21 242 11.3 14.5 0.00 0.00 0.00 10 1017.7
20260508194534 21 244 4.8 8.0 0.00 0.00 0.00 10 1017.8
20260508194032 22 217 3.2 3.2 0.00 0.00 0.00 10 1017.6
20260508193528 22 240 12.9 14.5 0.00 0.00 0.00 10 1017.8
20260508193025 21 246 11.3 14.5 0.00 0.00 0.00 10 1018.0
20260508192521 21 301 6.4 9.7 0.00 0.00 0.00 10 1018.0
20260508192019 21 258 4.8 4.8 0.00 0.00 0.00 10 1017.8
20260508191515 21 244 14.5 16.1 0.00 0.00 0.00 10 1018.1
20260508191012 21 246 9.7 11.3 0.00 0.00 0.00 10 1018.2
20260508190509 21 249 14.5 17.7 0.00 0.00 0.00 10 1018.2
20260508190005 21 245 11.3 14.5 0.00 0.00 0.00 10 1018.2
20260508185503 20 218 9.7 11.3 0.00 0.00 0.00 10 1018.2
20260508185000 20 223 6.4 9.7 0.00 0.00 0.00 10 1018.2
20260508184458 20 231 11.3 16.1 0.00 0.00 0.00 10 1018.3
20260508183954 20 238 12.9 14.5 0.00 0.00 0.00 10 1018.4
20260508183451 20 213 9.7 12.9 0.00 0.00 0.00 10 1018.3
20260508182946 21 229 14.5 16.1 0.00 0.00 0.00 10 1018.2
20260508182444 20 232 14.5 14.5 0.00 0.00 0.00 10 1018.4
20260508181943 21 260 6.4 8.0 0.00 0.00 0.00 10 1018.4
20260508181440 21 206 1.6 4.8 0.00 0.00 0.00 10 1018.3
20260508180939 21 250 12.9 14.5 0.00 0.00 0.00 10 1018.4
20260508180435 21 255 11.3 12.9 0.00 0.00 0.00 10 1018.6
20260508175931 20 153 3.2 3.2 0.00 0.00 0.00 10 1018.5
20260508175427 20 212 9.7 11.3 0.00 0.00 0.00 10 1018.6
20260508174925 20 234 4.8 8.0 0.00 0.00 0.00 10 1018.7
20260508174423 21 191 6.4 9.7 0.00 0.00 0.00 10 1018.5
20260508173919 20 230 4.8 9.7 0.00 0.00 0.00 10 1018.6
20260508173416 20 199 4.8 8.0 0.00 0.00 0.00 10 1018.5
20260508172912 20 269 6.4 8.0 0.00 0.00 0.00 10 1018.7
20260508172410 20 224 4.8 8.0 0.00 0.00 0.00 10 1018.5
20260508171905 20 185 3.2 4.8 0.00 0.00 0.00 10 1018.7
20260508171402 20 241 3.2 3.2 0.00 0.00 0.00 10 1018.5
20260508170859 19 212 8.0 9.7 0.00 0.00 0.00 10 1018.6
20260508170357 18 226 3.2 4.8 0.00 0.00 0.00 10 1018.9
20260508165853 19 271 6.4 8.0 0.00 0.00 0.00 10 1018.9
20260508165351 18 222 4.8 8.0 0.00 0.00 0.00 10 1018.5
20260508164846 18 230 11.3 12.9 0.00 0.00 0.00 10 1018.5
20260508164343 18 237 6.4 9.7 0.00 0.00 0.00 10 1018.7
20260508163841 18 236 6.4 8.0 0.00 0.00 0.00 10 1018.7
20260508163339 19 230 11.3 12.9 0.00 0.00 0.00 10 1018.7
20260508162834 19 224 4.8 4.8 0.00 0.00 0.00 10 1018.7
20260508162331 18 214 6.4 8.0 0.00 0.00 0.00 10 1018.5
20260508161823 18 249 4.8 4.8 0.00 0.00 0.00 10 1018.5
20260508161320 18 256 4.8 8.0 0.00 0.00 0.00 10 1018.4
20260508160818 18 171 4.8 4.8 0.00 0.00 0.00 10 1018.4
20260508160316 18 217 6.4 8.0 0.00 0.00 0.00 10 1018.5
20260508155812 18 261 8.0 9.7 0.00 0.00 0.00 10 1018.5
20260508155310 18 239 3.2 4.8 0.00 0.00 0.00 10 1018.5
20260508154806 18 212 3.2 3.2 0.00 0.00 0.00 10 1018.5
20260508154304 18 222 3.2 4.8 0.00 0.00 0.00 10 1018.6
20260508153800 18 235 3.2 3.2 0.00 0.00 0.00 10 1018.3
20260508153258 18 221 4.8 4.8 0.00 0.00 0.00 10 1018.1
20260508152754 18 152 1.6 1.6 0.00 0.00 0.00 10 1018.1
20260508152250 17 184 1.6 3.2 0.00 0.00 0.00 10 1018.2
20260508151746 17 179 3.2 3.2 0.00 0.00 0.00 10 1018.2
20260508151244 17 203 3.2 3.2 0.00 0.00 0.00 10 1018.5
20260508150740 17 177 4.8 8.0 0.00 0.00 0.00 10 1018.4
20260508150237 17 185 1.6 3.2 0.00 0.00 0.00 10 1018.2
20260508145733 17 152 3.2 3.2 0.00 0.00 0.00 10 1018.3
20260508145229 17 171 1.6 1.6 0.00 0.00 0.00 10 1018.3
20260508144726 17 160 1.6 1.6 0.00 0.00 0.00 10 1018.1
20260508144224 16 171 0.0 1.6 0.00 0.00 0.00 10 1018.3
20260508143721 16 162 1.6 3.2 0.00 0.00 0.00 10 1018.1
20260508143218 16 152 1.6 1.6 0.00 0.00 0.00 10 1018.1
20260508142714 15 171 0.0 0.0 0.00 0.00 0.00 10 1017.8
20260508142211 15 173 1.6 1.6 0.00 0.00 0.00 10 1018.1
20260508141708 15 176 0.0 0.0 0.00 0.00 0.00 10 1018.1
20260508141206 14 178 0.0 1.6 0.00 0.00 0.00 10 1018.1
20260508140703 13 179 0.0 1.6 0.00 0.00 0.00 10 1018.1
20260508140159 12 175 0.0 0.0 0.00 0.00 0.00 10 1017.8
20260508135656 12 165 1.6 1.6 0.00 0.00 0.00 10 1018.1
20260508135151 11 163 1.6 3.2 0.00 0.00 0.00 10 1017.8
20260508134648 11 171 1.6 3.2 0.00 0.00 0.00 10 1017.5
20260508134145 10 152 3.2 3.2 0.00 0.00 0.00 10 1017.7
20260508133642 10 122 1.6 1.6 0.00 0.00 0.00 10 1017.8
20260508133139 10 182 1.6 1.6 0.00 0.00 0.00 10 1017.6
20260508132637 9 213 1.6 3.2 0.00 0.00 0.00 10 1017.6
20260508132134 9 202 0.0 0.0 0.00 0.00 0.00 10 1017.5
20260508131629 8 195 0.0 0.0 0.00 0.00 0.00 10 1017.0
20260508131126 8 205 0.0 0.0 0.00 0.00 0.00 10 1017.4
20260508130622 8 227 4.8 4.8 0.00 0.00 0.00 10 1016.9
20260508130119 9 169 0.0 0.0 0.00 0.00 0.00 10 1017.2
20260508125614 8 168 1.6 1.6 0.00 0.00 0.00 10 1017.2
20260508125112 8 194 0.0 1.6 0.00 0.00 0.00 10 1017.0
20260508124610 9 236 3.2 3.2 0.00 0.00 0.00 10 1016.9
20260508124106 9 179 0.0 0.0 0.00 0.00 0.00 10 1017.0
20260508123605 9 178 0.0 0.0 0.00 0.00 0.00 10 1017.0
20260508123102 9 141 1.6 1.6 0.00 0.00 0.00 10 1016.8
20260508122558 9 244 1.6 1.6 0.00 0.00 0.00 10 1017.0
20260508122055 10 181 0.0 0.0 0.00 0.00 0.00 10 1016.7
20260508121554 10 163 3.2 3.2 0.00 0.00 0.00 10 1016.7
20260508121051 10 217 4.8 4.8 0.00 0.00 0.00 10 1016.7
20260508120548 10 200 3.2 3.2 0.00 0.00 0.00 10 1016.7
20260508120047 10 158 1.6 1.6 0.00 0.00 0.00 10 1016.7
20260508115544 10 153 3.2 3.2 0.00 0.00 0.00 10 1016.4
20260508115040 11 130 1.6 1.6 0.00 0.00 0.00 10 1016.1
20260508114537 10 131 1.6 3.2 0.00 0.00 0.00 10 1016.4
20260508114033 10 167 3.2 3.2 0.00 0.00 0.00 10 1016.4
20260508113531 11 171 1.6 3.2 0.00 0.00 0.00 10 1016.5
20260508113029 10 177 0.0 0.0 0.00 0.00 0.00 10 1016.4
20260508112525 11 176 0.0 0.0 0.00 0.00 0.00 10 1016.7
20260508112022 11 172 1.6 3.2 0.00 0.00 0.00 10 1016.5
20260508111519 11 139 4.8 4.8 0.00 0.00 0.00 10 1016.4
20260508111016 10 120 4.8 4.8 0.00 0.00 0.00 10 1016.4
20260508110514 10 168 1.6 1.6 0.00 0.00 0.00 10 1016.4
20260508110009 10 197 0.0 0.0 0.00 0.00 0.00 10 1016.6
20260508105505 9 205 1.6 1.6 0.00 0.00 0.00 10 1016.4
20260508105002 10 201 1.6 1.6 0.00 0.00 0.00 10 1016.1
20260508104500 10 195 0.0 0.0 0.00 0.00 0.00 10 1016.1
20260508103956 10 191 0.0 0.0 0.00 0.00 0.00 10 1016.1
20260508103453 10 185 1.6 1.6 0.00 0.00 0.00 10 1016.1
20260508102950 10 186 0.0 0.0 0.00 0.00 0.00 10 1016.0
20260508102448 10 196 0.0 1.6 0.00 0.00 0.00 10 1016.1
20260508101945 10 173 1.6 3.2 0.00 0.00 0.00 10 1016.2
20260508101443 10 166 1.6 1.6 0.00 0.00 0.00 10 1016.0
20260508100940 10 147 4.8 4.8 0.00 0.00 0.00 10 1015.9
20260508100438 10 149 4.8 4.8 0.00 0.00 0.00 10 1016.0
20260508095934 10 172 1.6 1.6 0.00 0.00 0.00 10 1015.9
20260508095432 10 200 0.0 1.6 0.00 0.00 0.00 10 1016.0
20260508094928 10 170 0.0 0.0 0.00 0.00 0.00 10 1015.8
20260508094425 10 152 1.6 3.2 0.00 0.00 0.00 10 1016.1
20260508093922 10 154 3.2 3.2 0.00 0.00 0.00 10 1015.9
20260508093420 10 151 3.2 3.2 0.00 0.00 0.00 10 1015.8
20260508092917 10 134 3.2 3.2 0.00 0.00 0.00 10 1016.0
20260508092415 10 117 3.2 3.2 0.00 0.00 0.00 10 1016.0
20260508091913 10 131 3.2 3.2 0.00 0.00 0.00 10 1016.0
20260508091409 10 131 3.2 3.2 0.00 0.00 0.00 10 1015.9
20260508090907 10 182 0.0 1.6 0.00 0.00 0.00 10 1016.0
20260508090405 11 184 0.0 0.0 0.00 0.00 0.00 10 1015.9
20260508085901 11 176 0.0 0.0 0.00 0.00 0.00 10 1016.0
20260508085357 11 127 1.6 1.6 0.00 0.00 0.00 10 1015.8
20260508084854 11 137 1.6 1.6 0.00 0.00 0.00 10 1016.2
20260508084351 11 172 1.6 1.6 0.00 0.00 0.00 10 1016.2
20260508083849 11 174 0.0 1.6 0.00 0.00 0.00 10 1016.1
20260508083346 11 177 1.6 1.6 0.00 0.00 0.00 10 1016.0
20260508082845 11 183 0.0 1.6 0.00 0.00 0.00 10 1015.8
20260508082343 11 194 0.0 0.0 0.00 0.00 0.00 10 1016.0
20260508081841 11 181 0.0 0.0 0.00 0.00 0.00 10 1016.2
20260508081337 11 192 0.0 0.0 0.00 0.00 0.00 10 1016.0
20260508080834 12 158 0.0 0.0 0.00 0.00 0.00 10 1015.8
20260508080332 12 196 0.0 1.6 0.00 0.00 0.00 10 1016.0
20260508075829 12 132 1.6 1.6 0.00 0.00 0.00 10 1015.9
20260508075325 12 160 1.6 1.6 0.00 0.00 0.00 10 1015.8
20260508074823 12 157 1.6 1.6 0.00 0.00 0.00 10 1015.9
20260508074320 13 141 1.6 1.6 0.00 0.00 0.00 10 1015.9
20260508073817 13 110 4.8 4.8 0.00 0.00 0.00 10 1015.9
20260508073315 13 108 3.2 3.2 0.00 0.00 0.00 10 1015.8
20260508072811 13 122 3.2 3.2 0.00 0.00 0.00 10 1015.8
20260508072308 13 130 1.6 3.2 0.00 0.00 0.00 10 1015.8
20260508071805 13 109 4.8 4.8 0.00 0.00 0.00 10 1016.0
20260508071304 13 101 4.8 4.8 0.00 0.00 0.00 10 1016.0
20260508070801 12 127 3.2 3.2 0.00 0.00 0.00 10 1015.8
20260508070300 12 133 3.2 3.2 0.00 0.00 0.00 10 1015.8
20260508065756 12 122 3.2 3.2 0.00 0.00 0.00 10 1015.8
20260508065254 13 127 3.2 3.2 0.00 0.00 0.00 10 1016.0
20260508064752 13 152 0.0 1.6 0.00 0.00 0.00 10 1015.7
20260508064250 12 155 1.6 1.6 0.00 0.00 0.00 10 1015.7
20260508063746 12 167 1.6 1.6 0.00 0.00 0.00 10 1015.7
20260508063245 13 154 1.6 1.6 0.00 0.00 0.00 10 1015.6
20260508062742 13 124 3.2 3.2 0.00 0.00 0.00 10 1015.8
20260508062239 13 151 1.6 1.6 0.00 0.00 0.00 10 1015.6
20260508061736 13 166 1.6 1.6 0.00 0.00 0.00 10 1015.7
20260508061233 13 135 1.6 3.2 0.00 0.00 0.00 10 1015.8
20260508060729 13 141 3.2 3.2 0.00 0.00 0.00 10 1015.6
20260508060227 13 166 1.6 1.6 0.00 0.00 0.00 10 1015.7
20260508055723 13 207 0.0 0.0 0.00 0.00 0.00 10 1015.3
20260508055220 13 209 1.6 1.6 0.00 0.00 0.00 10 1015.8
20260508054716 13 202 0.0 0.0 0.00 0.00 0.00 10 1015.8
20260508054214 13 203 1.6 3.2 0.00 0.00 0.00 10 1015.7
20260508053711 14 204 0.0 1.6 0.00 0.00 0.00 10 1015.5
20260508053208 15 180 0.0 0.0 0.00 0.00 0.00 10 1015.6
20260508052705 14 106 3.2 3.2 0.00 0.00 0.00 10 1015.6
20260508052202 15 322 16.1 17.7 0.00 0.00 0.00 10 1015.8
20260508051658 16 168 0.0 0.0 0.00 0.00 0.00 10 1015.7
20260508051154 17 142 1.6 1.6 0.00 0.00 0.00 10 1015.5
20260508050650 17 112 3.2 3.2 0.00 0.00 0.00 10 1015.6
20260508050148 17 105 3.2 3.2 0.00 0.00 0.00 10 1015.6
20260508045643 16 87 3.2 3.2 0.00 0.00 0.00 10 1015.6
20260508045142 16 125 4.8 4.8 0.00 0.00 0.00 10 1015.3
20260508044639 16 67 9.7 11.3 0.00 0.00 0.00 10 1015.7
20260508044134 16 63 9.7 11.3 0.00 0.00 0.00 10 1015.3
20260508043631 16 46 16.1 16.1 0.00 0.00 0.00 10 1015.6
20260508043129 16 179 1.6 3.2 0.00 0.00 0.00 10 1015.1
20260508042625 16 176 0.0 0.0 0.00 0.00 0.00 10 1015.0
20260508042123 16 175 1.6 1.6 0.00 0.00 0.00 10 1015.2
20260508041619 16 168 4.8 4.8 0.00 0.00 0.00 10 1015.0
20260508041116 17 167 1.6 3.2 0.00 0.00 0.00 10 1014.9
20260508040612 17 152 3.2 4.8 0.00 0.00 0.00 10 1015.0
20260508040110 17 146 6.4 8.0 0.00 0.00 0.00 10 1014.9
20260508035607 17 139 6.4 8.0 0.00 0.00 0.00 10 1014.9
20260508035104 17 139 3.2 3.2 0.00 0.00 0.00 10 1015.0
20260508034601 17 153 1.6 3.2 0.00 0.00 0.00 10 1014.9
20260508034058 17 118 4.8 8.0 0.00 0.00 0.00 10 1014.9
20260508033556 18 140 6.4 8.0 0.00 0.00 0.00 10 1014.8
20260508033054 18 169 1.6 3.2 0.00 0.00 0.00 10 1014.7
20260508032550 18 171 3.2 3.2 0.00 0.00 0.00 10 1014.8
20260508032048 18 174 3.2 3.2 0.00 0.00 0.00 10 1014.3
20260508031545 19 172 1.6 1.6 0.00 0.00 0.00 10 1014.4
20260508031040 19 172 4.8 4.8 0.00 0.00 0.00 10 1014.5
20260508030537 19 172 3.2 3.2 0.00 0.00 0.00 10 1014.3
20260508030035 20 171 1.6 3.2 0.00 0.00 0.00 10 1014.4
20260508025536 20 169 4.8 4.8 0.00 0.00 0.00 10 1014.7
20260508025033 20 181 1.6 3.2 0.00 0.00 0.00 10 1014.3
20260508024529 21 186 1.6 3.2 0.00 0.00 0.00 10 1014.3
20260508024026 21 196 1.6 3.2 0.00 0.00 0.00 10 1014.7
20260508023523 21 210 1.6 1.6 0.00 0.00 0.00 10 1014.4
20260508023020 21 211 4.8 4.8 0.00 0.00 0.00 10 1014.2
20260508022516 22 216 1.6 3.2 0.00 0.00 0.00 10 1014.5
20260508022013 22 223 4.8 4.8 0.00 0.00 0.00 10 1014.1
20260508021509 22 219 1.6 1.6 0.00 0.00 0.00 10 1014.4
20260508021005 22 216 3.2 3.2 0.00 0.00 0.00 10 1014.2
20260508020503 22 205 1.6 1.6 0.00 0.00 0.00 10 1014.3
20260508020000 23 204 0.0 0.0 0.00 0.00 0.00 10 1014.2
20260508015458 23 204 0.0 0.0 0.00 0.00 0.00 10 1014.5
20260508014954 23 213 1.6 1.6 0.00 0.00 0.00 10 1014.3
20260508014451 23 222 1.6 1.6 0.00 0.00 0.00 10 1014.4
20260508013947 23 216 1.6 3.2 0.00 0.00 0.00 10 1014.2
20260508013443 23 217 3.2 3.2 0.00 0.00 0.00 10 1014.3
20260508012941 23 249 4.8 4.8 0.00 0.00 0.00 10 1014.3
20260508012437 23 244 4.8 4.8 0.00 0.00 0.00 10 1014.4
20260508011935 23 243 6.4 8.0 0.00 0.00 0.00 10 1014.3
20260508011434 23 231 4.8 8.0 0.00 0.00 0.00 10 1014.4
20260508010930 23 229 6.4 8.0 0.00 0.00 0.00 10 1014.3
20260508010427 23 237 4.8 4.8 0.00 0.00 0.00 10 1014.5
20260508005924 23 246 6.4 8.0 0.00 0.00 0.00 10 1014.5
20260508005420 23 236 8.0 8.0 0.00 0.00 0.00 10 1014.5
20260508004917 23 234 14.5 16.1 0.00 0.00 0.00 10 1014.4
20260508004413 23 238 6.4 9.7 0.00 0.00 0.00 10 1014.5
20260508003910 23 253 6.4 8.0 0.00 0.00 0.00 10 1014.5
20260508003407 23 279 12.9 14.5 0.00 0.00 0.00 10 1014.5
20260508002904 23 214 9.7 11.3 0.00 0.00 0.00 10 1014.4
20260508002400 23 197 6.4 8.0 0.00 0.00 0.00 10 1014.7
20260508001856 23 252 8.0 9.7 0.00 0.00 0.00 10 1014.5
20260508001353 23 219 6.4 8.0 0.00 0.00 0.00 10 1014.5
20260508000849 23 188 6.4 9.7 0.00 0.00 0.00 10 1014.3
20260508000345 23 277 4.8 4.8 0.00 0.00 0.00 10 1014.4